| time (UTC) | temp F | wind direction | speed MPH | gust MPH | rain 1hr in | rain 24hr in | rain mn in | humidity % | barometer mb |
| 20260509191949 | 75 | 20 | 3.0 | 9.0 | 0.00 | 0.01 | 0.01 | 65 | 1009.5 |
| 20260509191451 | 75 | 166 | 2.0 | 9.0 | 0.00 | 0.01 | 0.01 | 62 | 1009.5 |
| 20260509190950 | 75 | 288 | 2.0 | 8.0 | 0.00 | 0.01 | 0.01 | 62 | 1009.4 |
| 20260509190449 | 74 | 77 | 3.0 | 8.0 | 0.00 | 0.01 | 0.01 | 63 | 1009.4 |
| 20260509185951 | 73 | 146 | 3.0 | 8.0 | 0.00 | 0.01 | 0.01 | 64 | 1009.7 |
| 20260509185450 | 73 | 196 | 3.0 | 7.0 | 0.00 | 0.01 | 0.01 | 64 | 1009.7 |
| 20260509184950 | 73 | 193 | 3.0 | 6.0 | 0.00 | 0.01 | 0.01 | 63 | 1009.8 |
| 20260509184450 | 73 | 197 | 3.0 | 6.0 | 0.00 | 0.01 | 0.01 | 63 | 1009.9 |
| 20260509183950 | 73 | 137 | 2.0 | 6.0 | 0.00 | 0.01 | 0.01 | 64 | 1009.9 |
| 20260509183714 | 73 | 204 | 3.0 | 7.0 | 0.00 | 0.01 | 0.01 | 63 | 1009.9 |
| 20260509183554 | 73 | 204 | 3.0 | 7.0 | 0.00 | 0.01 | 0.01 | 63 | 1009.9 |
| 20260509182948 | 73 | 22 | 3.0 | 7.0 | 0.00 | 0.01 | 0.01 | 63 | 1010.0 |
| 20260509182714 | 73 | 291 | 2.0 | 5.0 | 0.00 | 0.01 | 0.01 | 63 | 1010.0 |
| 20260509182550 | 73 | 291 | 2.0 | 5.0 | 0.00 | 0.01 | 0.01 | 63 | 1010.0 |
| 20260509181944 | 73 | 181 | 2.0 | 7.0 | 0.00 | 0.01 | 0.01 | 62 | 1010.2 |
| 20260509181446 | 72 | 339 | 3.0 | 7.0 | 0.00 | 0.01 | 0.01 | 62 | 1010.2 |
| 20260509180944 | 72 | 229 | 4.0 | 7.0 | 0.00 | 0.01 | 0.01 | 62 | 1010.5 |
| 20260509180704 | 71 | 206 | 4.0 | 9.0 | 0.00 | 0.01 | 0.01 | 63 | 1010.4 |
| 20260509180549 | 71 | 206 | 4.0 | 9.0 | 0.00 | 0.01 | 0.01 | 63 | 1010.4 |
| 20260509175945 | 72 | 162 | 4.0 | 9.0 | 0.00 | 0.01 | 0.01 | 61 | 1010.6 |
| 20260509175445 | 72 | 101 | 3.0 | 8.0 | 0.00 | 0.01 | 0.01 | 62 | 1010.8 |
| 20260509174946 | 71 | 156 | 2.0 | 6.0 | 0.00 | 0.01 | 0.01 | 61 | 1010.8 |
| 20260509174711 | 71 | 130 | 2.0 | 6.0 | 0.00 | 0.01 | 0.01 | 62 | 1010.6 |
| 20260509174445 | 71 | 130 | 2.0 | 6.0 | 0.00 | 0.01 | 0.01 | 62 | 1010.6 |
| 20260509173944 | 71 | 270 | 2.0 | 6.0 | 0.00 | 0.01 | 0.01 | 62 | 1010.8 |
| 20260509173444 | 71 | 211 | 2.0 | 6.0 | 0.00 | 0.01 | 0.01 | 61 | 1010.8 |
| 20260509172942 | 72 | 250 | 2.0 | 6.0 | 0.00 | 0.01 | 0.01 | 59 | 1010.8 |
| 20260509172439 | 72 | 150 | 2.0 | 7.0 | 0.00 | 0.01 | 0.01 | 59 | 1010.9 |
| 20260509172159 | 73 | 163 | 3.0 | 7.0 | 0.00 | 0.01 | 0.01 | 58 | 1010.8 |
| 20260509172044 | 73 | 163 | 3.0 | 7.0 | 0.00 | 0.01 | 0.01 | 58 | 1010.8 |
| 20260509171440 | 73 | 174 | 2.0 | 6.0 | 0.00 | 0.01 | 0.01 | 60 | 1010.6 |
| 20260509170939 | 73 | 195 | 2.0 | 6.0 | 0.00 | 0.01 | 0.01 | 59 | 1010.8 |
| 20260509170657 | 73 | 238 | 2.0 | 5.0 | 0.00 | 0.01 | 0.01 | 60 | 1010.9 |
| 20260509170544 | 73 | 238 | 2.0 | 5.0 | 0.00 | 0.01 | 0.01 | 60 | 1010.9 |
| 20260509165940 | 73 | 163 | 2.0 | 6.0 | 0.00 | 0.01 | 0.01 | 58 | 1011.0 |
| 20260509165439 | 73 | 148 | 3.0 | 6.0 | 0.00 | 0.01 | 0.01 | 59 | 1010.8 |
| 20260509165418 | 73 | 220 | 3.0 | 6.0 | 0.00 | 0.01 | 0.01 | 58 | 1010.8 |
| 20260509165045 | 73 | 220 | 3.0 | 6.0 | 0.00 | 0.01 | 0.01 | 58 | 1010.8 |
| 20260509164440 | 72 | 166 | 2.0 | 7.0 | 0.00 | 0.01 | 0.01 | 58 | 1010.8 |
| 20260509163938 | 72 | 191 | 2.0 | 7.0 | 0.00 | 0.01 | 0.01 | 59 | 1010.8 |
| 20260509163438 | 71 | 147 | 2.0 | 5.0 | 0.00 | 0.01 | 0.01 | 59 | 1010.8 |
| 20260509162938 | 70 | 184 | 3.0 | 7.0 | 0.00 | 0.01 | 0.01 | 61 | 1010.8 |
| 20260509162437 | 70 | 144 | 4.0 | 7.0 | 0.00 | 0.01 | 0.01 | 61 | 1010.9 |
| 20260509162204 | 70 | 169 | 3.0 | 7.0 | 0.00 | 0.01 | 0.01 | 61 | 1010.9 |
| 20260509161938 | 70 | 169 | 3.0 | 7.0 | 0.00 | 0.01 | 0.01 | 61 | 1010.9 |
| 20260509161437 | 69 | 158 | 3.0 | 8.0 | 0.00 | 0.01 | 0.01 | 62 | 1011.0 |
| 20260509160938 | 69 | 227 | 4.0 | 11.0 | 0.00 | 0.01 | 0.01 | 63 | 1011.1 |
| 20260509160437 | 70 | 140 | 4.0 | 11.0 | 0.00 | 0.01 | 0.01 | 63 | 1011.2 |
| 20260509160204 | 70 | 190 | 3.0 | 6.0 | 0.00 | 0.01 | 0.01 | 65 | 1011.2 |
| 20260509155937 | 70 | 190 | 3.0 | 6.0 | 0.00 | 0.01 | 0.01 | 65 | 1011.2 |
| 20260509155438 | 69 | 232 | 4.0 | 10.0 | 0.00 | 0.01 | 0.01 | 65 | 1011.2 |
| 20260509155205 | 70 | 157 | 4.0 | 10.0 | 0.00 | 0.01 | 0.01 | 63 | 1011.1 |
| 20260509154938 | 70 | 157 | 4.0 | 10.0 | 0.00 | 0.01 | 0.01 | 63 | 1011.1 |
| 20260509154438 | 69 | 164 | 4.0 | 10.0 | 0.00 | 0.01 | 0.01 | 64 | 1011.2 |
| 20260509153938 | 69 | 170 | 4.0 | 10.0 | 0.00 | 0.01 | 0.01 | 68 | 1011.2 |
| 20260509153437 | 68 | 141 | 4.0 | 8.0 | 0.00 | 0.01 | 0.01 | 69 | 1011.2 |
| 20260509153303 | 68 | 146 | 4.0 | 9.0 | 0.00 | 0.01 | 0.01 | 69 | 1011.3 |
| 20260509153155 | 68 | 146 | 4.0 | 9.0 | 0.00 | 0.01 | 0.01 | 69 | 1011.3 |
| 20260509152757 | 69 | 204 | 4.0 | 9.0 | 0.00 | 0.01 | 0.01 | 68 | 1011.7 |
| 20260509152653 | 69 | 204 | 4.0 | 9.0 | 0.00 | 0.01 | 0.01 | 68 | 1011.7 |
| 20260509151937 | 69 | 176 | 3.0 | 7.0 | 0.00 | 0.01 | 0.01 | 68 | 1011.7 |
| 20260509151436 | 69 | 153 | 3.0 | 7.0 | 0.00 | 0.01 | 0.01 | 66 | 1012.0 |
| 20260509150937 | 70 | 163 | 3.0 | 7.0 | 0.00 | 0.01 | 0.01 | 65 | 1012.1 |
| 20260509150436 | 70 | 104 | 2.0 | 7.0 | 0.00 | 0.01 | 0.01 | 67 | 1012.2 |
| 20260509150419 | 69 | 140 | 2.0 | 6.0 | 0.00 | 0.01 | 0.01 | 65 | 1012.3 |
| 20260509150042 | 69 | 140 | 2.0 | 6.0 | 0.00 | 0.01 | 0.01 | 65 | 1012.3 |
| 20260509145701 | 68 | 227 | 3.0 | 6.0 | 0.00 | 0.01 | 0.01 | 69 | 1012.1 |
| 20260509145436 | 68 | 227 | 3.0 | 6.0 | 0.00 | 0.01 | 0.01 | 69 | 1012.1 |
| 20260509144937 | 68 | 165 | 4.0 | 8.0 | 0.00 | 0.01 | 0.01 | 68 | 1012.2 |
| 20260509144436 | 68 | 150 | 3.0 | 8.0 | 0.00 | 0.01 | 0.01 | 69 | 1012.3 |
| 20260509143936 | 67 | 203 | 3.0 | 6.0 | 0.01 | 0.01 | 0.01 | 73 | 1012.4 |
| 20260509143436 | 67 | 170 | 2.0 | 6.0 | 0.01 | 0.01 | 0.01 | 72 | 1012.6 |
| 20260509142933 | 67 | 195 | 1.0 | 4.0 | 0.01 | 0.01 | 0.01 | 73 | 1012.7 |
| 20260509142434 | 66 | 205 | 1.0 | 3.0 | 0.01 | 0.01 | 0.01 | 77 | 1012.7 |
| 20260509141934 | 65 | 284 | 1.0 | 4.0 | 0.01 | 0.01 | 0.01 | 79 | 1012.4 |
| 20260509141430 | 65 | 174 | 2.0 | 6.0 | 0.01 | 0.01 | 0.01 | 78 | 1012.0 |
| 20260509140931 | 65 | 180 | 3.0 | 7.0 | 0.00 | 0.00 | 0.00 | 75 | 1012.1 |
| 20260509140431 | 65 | 166 | 3.0 | 8.0 | 0.00 | 0.00 | 0.00 | 75 | 1012.4 |
| 20260509135931 | 65 | 197 | 3.0 | 8.0 | 0.00 | 0.00 | 0.00 | 76 | 1012.6 |
| 20260509135432 | 65 | 233 | 2.0 | 5.0 | 0.00 | 0.00 | 0.00 | 79 | 1012.6 |
| 20260509134931 | 65 | 206 | 2.0 | 5.0 | 0.00 | 0.00 | 0.00 | 78 | 1012.6 |
| 20260509134658 | 65 | 0 | 2.0 | 4.0 | 0.00 | 0.00 | 0.00 | 80 | 1012.6 |
| 20260509134431 | 65 | 0 | 2.0 | 4.0 | 0.00 | 0.00 | 0.00 | 80 | 1012.6 |
| 20260509133932 | 65 | 37 | 2.0 | 4.0 | 0.00 | 0.00 | 0.00 | 79 | 1012.5 |
| 20260509133429 | 65 | 220 | 2.0 | 5.0 | 0.00 | 0.00 | 0.00 | 78 | 1012.5 |
| 20260509132929 | 65 | 232 | 2.0 | 5.0 | 0.00 | 0.00 | 0.00 | 79 | 1012.7 |
| 20260509132429 | 65 | 201 | 2.0 | 5.0 | 0.00 | 0.00 | 0.00 | 78 | 1012.9 |
| 20260509132147 | 64 | 169 | 2.0 | 4.0 | 0.00 | 0.00 | 0.00 | 80 | 1013.1 |
| 20260509132033 | 64 | 169 | 2.0 | 4.0 | 0.00 | 0.00 | 0.00 | 80 | 1013.1 |
| 20260509131430 | 64 | 134 | 2.0 | 4.0 | 0.00 | 0.00 | 0.00 | 82 | 1013.1 |
| 20260509130929 | 63 | 0 | 2.0 | 5.0 | 0.00 | 0.00 | 0.00 | 83 | 1013.4 |
| 20260509130429 | 63 | 206 | 3.0 | 6.0 | 0.00 | 0.00 | 0.00 | 84 | 1013.4 |
| 20260509130418 | 63 | 154 | 3.0 | 6.0 | 0.00 | 0.00 | 0.00 | 83 | 1013.3 |
| 20260509130035 | 63 | 154 | 3.0 | 6.0 | 0.00 | 0.00 | 0.00 | 83 | 1013.3 |
| 20260509125430 | 62 | 211 | 2.0 | 5.0 | 0.00 | 0.00 | 0.00 | 84 | 1013.1 |
| 20260509124930 | 62 | 203 | 2.0 | 4.0 | 0.00 | 0.00 | 0.00 | 84 | 1013.1 |
| 20260509124426 | 61 | 215 | 2.0 | 4.0 | 0.00 | 0.00 | 0.00 | 85 | 1013.1 |
| 20260509123924 | 60 | 220 | 2.0 | 4.0 | 0.00 | 0.00 | 0.00 | 87 | 1013.0 |
| 20260509123421 | 60 | 193 | 2.0 | 4.0 | 0.00 | 0.00 | 0.00 | 87 | 1012.8 |
| 20260509122920 | 60 | 218 | 2.0 | 4.0 | 0.00 | 0.00 | 0.00 | 89 | 1012.9 |
| 20260509122650 | 59 | 265 | 1.0 | 4.0 | 0.00 | 0.00 | 0.00 | 89 | 1012.9 |
| 20260509122421 | 59 | 265 | 1.0 | 4.0 | 0.00 | 0.00 | 0.00 | 89 | 1012.9 |
| 20260509121921 | 60 | 183 | 1.0 | 3.0 | 0.00 | 0.00 | 0.00 | 89 | 1012.9 |
| 20260509121421 | 59 | 125 | 1.0 | 4.0 | 0.00 | 0.00 | 0.00 | 89 | 1013.0 |
| 20260509121148 | 59 | 230 | 1.0 | 4.0 | 0.00 | 0.00 | 0.00 | 92 | 1013.1 |
| 20260509120919 | 59 | 230 | 1.0 | 4.0 | 0.00 | 0.00 | 0.00 | 92 | 1013.1 |
| 20260509120420 | 59 | 164 | 0.0 | 4.0 | 0.00 | 0.00 | 0.00 | 95 | 1013.0 |
| 20260509115920 | 58 | 301 | 0.0 | 3.0 | 0.00 | 0.00 | 0.00 | 96 | 1012.8 |
| 20260509115420 | 57 | 122 | 0.0 | 2.0 | 0.00 | 0.00 | 0.00 | 97 | 1012.9 |
| 20260509114920 | 56 | 150 | 0.0 | 2.0 | 0.00 | 0.00 | 0.00 | 97 | 1013.0 |
| 20260509114643 | 56 | 117 | 0.0 | 2.0 | 0.00 | 0.00 | 0.00 | 97 | 1013.1 |
| 20260509114524 | 56 | 117 | 0.0 | 2.0 | 0.00 | 0.00 | 0.00 | 97 | 1013.1 |
| 20260509113920 | 56 | 259 | 0.0 | 2.0 | 0.00 | 0.00 | 0.00 | 97 | 1013.1 |
| 20260509113420 | 55 | 264 | 0.0 | 1.0 | 0.00 | 0.00 | 0.00 | 97 | 1013.1 |
| 20260509112924 | 54 | 19 | 0.0 | 1.0 | 0.00 | 0.00 | 0.00 | 98 | 1013.1 |
| 20260509112421 | 53 | 87 | 0.0 | 1.0 | 0.00 | 0.00 | 0.00 | 98 | 1012.9 |
| 20260509111921 | 53 | 127 | 0.0 | 1.0 | 0.00 | 0.00 | 0.00 | 98 | 1012.9 |
| 20260509111408 | 52 | 94 | 1.0 | 1.0 | 0.00 | 0.00 | 0.00 | 98 | 1012.8 |
| 20260509110908 | 52 | 310 | 1.0 | 2.0 | 0.00 | 0.00 | 0.00 | 98 | 1012.8 |
| 20260509110408 | 52 | 279 | 0.0 | 2.0 | 0.00 | 0.00 | 0.00 | 98 | 1012.6 |
| 20260509110132 | 51 | 310 | 0.0 | 1.0 | 0.00 | 0.00 | 0.00 | 98 | 1012.5 |
| 20260509110013 | 51 | 310 | 0.0 | 1.0 | 0.00 | 0.00 | 0.00 | 98 | 1012.5 |
| 20260509105408 | 51 | 277 | 0.0 | 1.0 | 0.00 | 0.00 | 0.00 | 98 | 1012.4 |
| 20260509104854 | 51 | 33 | 0.0 | 1.0 | 0.00 | 0.00 | 0.00 | 98 | 1012.3 |
| 20260509104338 | 51 | 344 | 0.0 | 1.0 | 0.00 | 0.00 | 0.00 | 98 | 1012.6 |
| 20260509103838 | 50 | 0 | 0.0 | 2.0 | 0.00 | 0.00 | 0.00 | 98 | 1012.5 |
| 20260509103338 | 50 | 0 | 0.0 | 2.0 | 0.00 | 0.00 | 0.00 | 97 | 1012.5 |
| 20260509102839 | 50 | 0 | 0.0 | 1.0 | 0.00 | 0.00 | 0.00 | 97 | 1012.3 |
| 20260509102326 | 50 | 319 | 1.0 | 1.0 | 0.00 | 0.00 | 0.00 | 97 | 1012.2 |
| 20260509101825 | 50 | 290 | 1.0 | 1.0 | 0.00 | 0.00 | 0.00 | 97 | 1012.2 |
| 20260509101547 | 50 | 327 | 1.0 | 1.0 | 0.00 | 0.00 | 0.00 | 97 | 1012.1 |
| 20260509101429 | 50 | 327 | 1.0 | 1.0 | 0.00 | 0.00 | 0.00 | 97 | 1012.1 |
| 20260509100826 | 50 | 340 | 1.0 | 1.0 | 0.00 | 0.00 | 0.00 | 97 | 1011.9 |
| 20260509100326 | 50 | 353 | 1.0 | 2.0 | 0.00 | 0.00 | 0.00 | 97 | 1011.9 |
| 20260509095825 | 50 | 352 | 1.0 | 2.0 | 0.00 | 0.00 | 0.00 | 97 | 1012.0 |
| 20260509095326 | 51 | 345 | 0.0 | 1.0 | 0.00 | 0.00 | 0.00 | 97 | 1012.0 |
| 20260509094826 | 51 | 0 | 0.0 | 1.0 | 0.00 | 0.00 | 0.00 | 97 | 1012.0 |
| 20260509094325 | 51 | 0 | 0.0 | 1.0 | 0.00 | 0.00 | 0.00 | 97 | 1012.0 |
| 20260509093823 | 51 | 26 | 1.0 | 1.0 | 0.00 | 0.00 | 0.00 | 97 | 1012.0 |
| 20260509093543 | 51 | 336 | 1.0 | 2.0 | 0.00 | 0.00 | 0.00 | 97 | 1012.0 |
| 20260509093429 | 51 | 336 | 1.0 | 2.0 | 0.00 | 0.00 | 0.00 | 97 | 1012.0 |
| 20260509092809 | 51 | 333 | 1.0 | 2.0 | 0.00 | 0.00 | 0.00 | 97 | 1012.0 |
| 20260509092311 | 51 | 319 | 1.0 | 2.0 | 0.00 | 0.00 | 0.00 | 96 | 1012.0 |
| 20260509091810 | 51 | 299 | 0.0 | 1.0 | 0.00 | 0.00 | 0.00 | 96 | 1012.0 |
| 20260509091311 | 51 | 312 | 0.0 | 1.0 | 0.00 | 0.00 | 0.00 | 96 | 1012.1 |
| 20260509091133 | 51 | 0 | 0.0 | 1.0 | 0.00 | 0.00 | 0.00 | 96 | 1012.4 |
| 20260509091034 | 51 | 0 | 0.0 | 1.0 | 0.00 | 0.00 | 0.00 | 96 | 1012.4 |
| 20260509090255 | 51 | 0 | 0.0 | 1.0 | 0.00 | 0.00 | 0.00 | 96 | 1012.5 |
| 20260509085755 | 51 | 309 | 0.0 | 1.0 | 0.00 | 0.00 | 0.00 | 96 | 1012.6 |
| 20260509085255 | 51 | 37 | 0.0 | 1.0 | 0.00 | 0.00 | 0.00 | 96 | 1012.6 |
| 20260509084755 | 51 | 0 | 1.0 | 2.0 | 0.00 | 0.00 | 0.00 | 95 | 1012.8 |
| 20260509084242 | 52 | 307 | 1.0 | 2.0 | 0.00 | 0.00 | 0.00 | 95 | 1013.0 |
| 20260509083957 | 52 | 311 | 1.0 | 2.0 | 0.00 | 0.00 | 0.00 | 95 | 1013.0 |
| 20260509083841 | 52 | 311 | 1.0 | 2.0 | 0.00 | 0.00 | 0.00 | 95 | 1013.0 |
| 20260509083501 | 52 | 331 | 1.0 | 2.0 | 0.00 | 0.00 | 0.00 | 95 | 1012.9 |
| 20260509083341 | 52 | 331 | 1.0 | 2.0 | 0.00 | 0.00 | 0.00 | 95 | 1012.9 |
| 20260509083002 | 52 | 299 | 1.0 | 2.0 | 0.00 | 0.00 | 0.00 | 95 | 1012.9 |
| 20260509082842 | 52 | 299 | 1.0 | 2.0 | 0.00 | 0.00 | 0.00 | 95 | 1012.9 |
| 20260509082235 | 52 | 329 | 1.0 | 2.0 | 0.00 | 0.00 | 0.00 | 95 | 1012.9 |
| 20260509081950 | 53 | 280 | 1.0 | 2.0 | 0.00 | 0.00 | 0.00 | 95 | 1013.1 |
| 20260509081839 | 53 | 280 | 1.0 | 2.0 | 0.00 | 0.00 | 0.00 | 95 | 1013.1 |
| 20260509081724 | 53 | 300 | 1.0 | 2.0 | 0.00 | 0.00 | 0.00 | 95 | 1013.1 |
| 20260509081235 | 53 | 300 | 1.0 | 2.0 | 0.00 | 0.00 | 0.00 | 95 | 1013.1 |
| 20260509081007 | 53 | 0 | 1.0 | 2.0 | 0.00 | 0.00 | 0.00 | 94 | 1013.0 |
| 20260509080840 | 53 | 0 | 1.0 | 2.0 | 0.00 | 0.00 | 0.00 | 94 | 1013.0 |
| 20260509080232 | 53 | 295 | 1.0 | 2.0 | 0.00 | 0.00 | 0.00 | 94 | 1013.0 |
| 20260509075731 | 53 | 335 | 1.0 | 2.0 | 0.00 | 0.00 | 0.00 | 94 | 1013.0 |
| 20260509075458 | 53 | 311 | 1.0 | 2.0 | 0.00 | 0.00 | 0.00 | 94 | 1013.0 |
| 20260509075336 | 53 | 311 | 1.0 | 2.0 | 0.00 | 0.00 | 0.00 | 94 | 1013.0 |
| 20260509074953 | 53 | 317 | 1.0 | 2.0 | 0.00 | 0.00 | 0.00 | 94 | 1012.9 |
| 20260509074837 | 53 | 317 | 1.0 | 2.0 | 0.00 | 0.00 | 0.00 | 94 | 1012.9 |
| 20260509074232 | 53 | 329 | 1.0 | 2.0 | 0.00 | 0.00 | 0.00 | 94 | 1012.9 |
| 20260509073731 | 53 | 140 | 1.0 | 2.0 | 0.00 | 0.00 | 0.00 | 93 | 1013.0 |
| 20260509073229 | 54 | 298 | 1.0 | 2.0 | 0.00 | 0.00 | 0.00 | 93 | 1012.9 |
| 20260509072949 | 54 | 125 | 1.0 | 2.0 | 0.00 | 0.00 | 0.00 | 93 | 1013.0 |
| 20260509072834 | 54 | 125 | 1.0 | 2.0 | 0.00 | 0.00 | 0.00 | 93 | 1013.0 |
| 20260509072227 | 54 | 160 | 1.0 | 2.0 | 0.00 | 0.00 | 0.00 | 93 | 1012.9 |
| 20260509071729 | 54 | 319 | 1.0 | 2.0 | 0.00 | 0.00 | 0.00 | 92 | 1013.1 |
| 20260509071227 | 54 | 151 | 1.0 | 2.0 | 0.00 | 0.00 | 0.00 | 92 | 1013.1 |
| 20260509070724 | 54 | 269 | 1.0 | 2.0 | 0.00 | 0.00 | 0.00 | 92 | 1013.4 |
| 20260509070224 | 54 | 311 | 1.0 | 2.0 | 0.00 | 0.00 | 0.00 | 92 | 1013.4 |
| 20260509065724 | 54 | 0 | 1.0 | 2.0 | 0.00 | 0.00 | 0.00 | 91 | 1013.3 |
| 20260509065454 | 54 | 119 | 1.0 | 2.0 | 0.00 | 0.00 | 0.00 | 91 | 1013.3 |
| 20260509065328 | 55 | 154 | 1.0 | 2.0 | 0.00 | 0.00 | 0.00 | 91 | 1013.3 |
| 20260509065226 | 54 | 119 | 1.0 | 2.0 | 0.00 | 0.00 | 0.00 | 91 | 1013.3 |
| 20260509065219 | 55 | 154 | 1.0 | 2.0 | 0.00 | 0.00 | 0.00 | 91 | 1013.3 |
| 20260509064224 | 55 | 180 | 1.0 | 2.0 | 0.00 | 0.00 | 0.00 | 90 | 1013.4 |
| 20260509063724 | 55 | 262 | 1.0 | 2.0 | 0.00 | 0.00 | 0.00 | 90 | 1013.4 |
| 20260509063224 | 55 | 119 | 1.0 | 2.0 | 0.00 | 0.00 | 0.00 | 89 | 1013.5 |
| 20260509062947 | 55 | 312 | 1.0 | 2.0 | 0.00 | 0.00 | 0.00 | 88 | 1013.6 |
| 20260509062827 | 55 | 312 | 1.0 | 2.0 | 0.00 | 0.00 | 0.00 | 88 | 1013.6 |
| 20260509062219 | 55 | 290 | 1.0 | 2.0 | 0.00 | 0.00 | 0.00 | 88 | 1013.7 |
| 20260509061719 | 56 | 293 | 1.0 | 2.0 | 0.00 | 0.00 | 0.00 | 88 | 1013.8 |
| 20260509061220 | 56 | 310 | 1.0 | 2.0 | 0.00 | 0.00 | 0.00 | 87 | 1014.0 |
| 20260509060719 | 56 | 279 | 1.0 | 2.0 | 0.00 | 0.00 | 0.00 | 87 | 1014.2 |
| 20260509060220 | 56 | 304 | 1.0 | 2.0 | 0.00 | 0.00 | 0.00 | 86 | 1014.2 |
| 20260509055720 | 57 | 281 | 1.0 | 2.0 | 0.00 | 0.00 | 0.00 | 86 | 1014.2 |
| 20260509055221 | 57 | 261 | 1.0 | 2.0 | 0.00 | 0.00 | 0.00 | 85 | 1014.3 |
| 20260509054720 | 57 | 324 | 1.0 | 2.0 | 0.00 | 0.00 | 0.00 | 85 | 1014.3 |
| 20260509054712 | 57 | 317 | 1.0 | 3.0 | 0.00 | 0.00 | 0.00 | 84 | 1014.3 |
| 20260509054325 | 57 | 317 | 1.0 | 3.0 | 0.00 | 0.00 | 0.00 | 84 | 1014.3 |
| 20260509053935 | 57 | 197 | 1.0 | 3.0 | 0.00 | 0.00 | 0.00 | 84 | 1014.2 |
| 20260509053821 | 57 | 197 | 1.0 | 3.0 | 0.00 | 0.00 | 0.00 | 84 | 1014.2 |
| 20260509053218 | 57 | 260 | 1.0 | 3.0 | 0.00 | 0.00 | 0.00 | 83 | 1014.3 |
| 20260509052714 | 58 | 210 | 1.0 | 3.0 | 0.00 | 0.00 | 0.00 | 83 | 1014.4 |
| 20260509052213 | 58 | 101 | 1.0 | 3.0 | 0.00 | 0.00 | 0.00 | 83 | 1014.4 |
| 20260509052035 | 58 | 294 | 1.0 | 3.0 | 0.00 | 0.00 | 0.00 | 82 | 1014.5 |
| 20260509051935 | 58 | 294 | 1.0 | 3.0 | 0.00 | 0.00 | 0.00 | 82 | 1014.5 |
| 20260509051435 | 58 | 242 | 1.0 | 4.0 | 0.00 | 0.00 | 0.00 | 82 | 1014.5 |
| 20260509051208 | 58 | 242 | 1.0 | 4.0 | 0.00 | 0.00 | 0.00 | 82 | 1014.5 |
| 20260509050708 | 58 | 274 | 1.0 | 4.0 | 0.00 | 0.00 | 0.00 | 82 | 1014.5 |
| 20260509050538 | 58 | 256 | 1.0 | 4.0 | 0.00 | 0.00 | 0.00 | 81 | 1014.5 |
| 20260509050426 | 58 | 256 | 1.0 | 4.0 | 0.00 | 0.00 | 0.00 | 81 | 1014.5 |
| 20260509045708 | 58 | 224 | 1.0 | 4.0 | 0.00 | 0.00 | 0.00 | 81 | 1014.5 |
| 20260509045208 | 58 | 201 | 2.0 | 4.0 | 0.00 | 0.00 | 0.00 | 81 | 1014.6 |
| 20260509044708 | 58 | 179 | 2.0 | 3.0 | 0.00 | 0.00 | 0.00 | 81 | 1014.5 |
| 20260509044208 | 58 | 195 | 2.0 | 3.0 | 0.00 | 0.00 | 0.00 | 80 | 1014.5 |
| 20260509043928 | 59 | 214 | 1.0 | 3.0 | 0.00 | 0.00 | 0.00 | 80 | 1014.5 |
| 20260509043705 | 59 | 214 | 1.0 | 3.0 | 0.00 | 0.00 | 0.00 | 80 | 1014.5 |
| 20260509043206 | 59 | 168 | 1.0 | 4.0 | 0.00 | 0.00 | 0.00 | 79 | 1014.5 |
| 20260509042935 | 59 | 273 | 2.0 | 5.0 | 0.00 | 0.00 | 0.00 | 78 | 1014.5 |
| 20260509042704 | 59 | 273 | 2.0 | 5.0 | 0.00 | 0.00 | 0.00 | 78 | 1014.5 |
| 20260509042434 | 59 | 240 | 2.0 | 5.0 | 0.00 | 0.00 | 0.00 | 78 | 1014.5 |
| 20260509042307 | 59 | 240 | 2.0 | 5.0 | 0.00 | 0.00 | 0.00 | 78 | 1014.5 |
| 20260509041703 | 59 | 181 | 2.0 | 4.0 | 0.00 | 0.00 | 0.00 | 78 | 1014.4 |
| 20260509041425 | 59 | 283 | 2.0 | 4.0 | 0.00 | 0.00 | 0.00 | 77 | 1014.4 |
| 20260509041308 | 59 | 283 | 2.0 | 4.0 | 0.00 | 0.00 | 0.00 | 77 | 1014.4 |
| 20260509040704 | 59 | 189 | 1.0 | 3.0 | 0.00 | 0.00 | 0.00 | 77 | 1014.4 |
| 20260509040215 | 59 | 234 | 1.0 | 2.0 | 0.00 | 0.00 | 0.00 | 76 | 1014.3 |
| 20260509035923 | 60 | 252 | 1.0 | 4.0 | 0.00 | 0.00 | 0.00 | 76 | 1014.5 |
| 20260509035808 | 60 | 252 | 1.0 | 4.0 | 0.00 | 0.00 | 0.00 | 76 | 1014.5 |
| 20260509035203 | 60 | 248 | 2.0 | 7.0 | 0.00 | 0.00 | 0.00 | 75 | 1014.6 |
| 20260509034703 | 60 | 215 | 2.0 | 7.0 | 0.00 | 0.00 | 0.00 | 75 | 1014.6 |
| 20260509034424 | 60 | 264 | 2.0 | 4.0 | 0.00 | 0.00 | 0.00 | 74 | 1014.5 |
| 20260509034309 | 60 | 264 | 2.0 | 4.0 | 0.00 | 0.00 | 0.00 | 74 | 1014.5 |
| 20260509033704 | 60 | 257 | 2.0 | 5.0 | 0.00 | 0.00 | 0.00 | 74 | 1014.6 |
| 20260509033418 | 60 | 208 | 2.0 | 5.0 | 0.00 | 0.00 | 0.00 | 74 | 1014.7 |
| 20260509033305 | 60 | 208 | 2.0 | 5.0 | 0.00 | 0.00 | 0.00 | 74 | 1014.7 |
| 20260509032700 | 60 | 188 | 2.0 | 6.0 | 0.00 | 0.00 | 0.00 | 73 | 1014.8 |
| 20260509032202 | 60 | 193 | 2.0 | 6.0 | 0.00 | 0.00 | 0.00 | 73 | 1014.7 |
| 20260509031931 | 61 | 200 | 2.0 | 6.0 | 0.00 | 0.00 | 0.00 | 72 | 1014.8 |
| 20260509031806 | 61 | 200 | 2.0 | 6.0 | 0.00 | 0.00 | 0.00 | 72 | 1014.8 |
| 20260509031201 | 61 | 223 | 2.0 | 6.0 | 0.00 | 0.00 | 0.00 | 72 | 1014.7 |
| 20260509030701 | 61 | 198 | 2.0 | 8.0 | 0.00 | 0.00 | 0.00 | 72 | 1014.6 |
| 20260509030201 | 61 | 242 | 2.0 | 8.0 | 0.00 | 0.00 | 0.00 | 71 | 1014.7 |
| 20260509025701 | 61 | 173 | 3.0 | 8.0 | 0.00 | 0.00 | 0.00 | 71 | 1014.8 |
| 20260509025201 | 61 | 242 | 3.0 | 8.0 | 0.00 | 0.00 | 0.00 | 70 | 1014.8 |
| 20260509024701 | 61 | 97 | 2.0 | 8.0 | 0.00 | 0.00 | 0.00 | 71 | 1014.8 |
| 20260509024201 | 61 | 186 | 2.0 | 8.0 | 0.00 | 0.00 | 0.00 | 69 | 1014.9 |
| 20260509023659 | 62 | 229 | 3.0 | 8.0 | 0.00 | 0.00 | 0.00 | 70 | 1014.8 |
| 20260509023418 | 62 | 193 | 3.0 | 8.0 | 0.00 | 0.00 | 0.00 | 69 | 1014.8 |
| 20260509023259 | 62 | 193 | 3.0 | 8.0 | 0.00 | 0.00 | 0.00 | 69 | 1014.8 |
| 20260509022655 | 62 | 196 | 3.0 | 7.0 | 0.00 | 0.00 | 0.00 | 70 | 1014.9 |
| 20260509022155 | 62 | 224 | 3.0 | 7.0 | 0.00 | 0.00 | 0.00 | 70 | 1014.9 |
| 20260509021656 | 62 | 251 | 2.0 | 8.0 | 0.00 | 0.00 | 0.00 | 70 | 1014.9 |
| 20260509021155 | 62 | 203 | 2.0 | 8.0 | 0.00 | 0.00 | 0.00 | 71 | 1014.8 |
| 20260509021018 | 62 | 236 | 3.0 | 7.0 | 0.00 | 0.00 | 0.00 | 70 | 1014.8 |
| 20260509020916 | 62 | 236 | 3.0 | 7.0 | 0.00 | 0.00 | 0.00 | 70 | 1014.8 |
| 20260509020417 | 62 | 190 | 3.0 | 7.0 | 0.00 | 0.00 | 0.00 | 71 | 1014.9 |
| 20260509020300 | 62 | 190 | 3.0 | 7.0 | 0.00 | 0.00 | 0.00 | 71 | 1014.9 |
| 20260509015656 | 62 | 233 | 3.0 | 7.0 | 0.00 | 0.00 | 0.00 | 71 | 1014.8 |
| 20260509015425 | 62 | 231 | 3.0 | 8.0 | 0.00 | 0.00 | 0.00 | 71 | 1014.6 |
| 20260509015301 | 62 | 231 | 3.0 | 8.0 | 0.00 | 0.00 | 0.00 | 71 | 1014.6 |
| 20260509014657 | 61 | 208 | 3.0 | 8.0 | 0.00 | 0.00 | 0.00 | 70 | 1014.6 |
| 20260509014156 | 61 | 205 | 3.0 | 7.0 | 0.00 | 0.00 | 0.00 | 71 | 1014.7 |
| 20260509013927 | 59 | 217 | 2.0 | 7.0 | 0.00 | 0.00 | 0.00 | 73 | 1014.8 |
| 20260509013758 | 59 | 217 | 2.0 | 7.0 | 0.00 | 0.00 | 0.00 | 73 | 1014.8 |
| 20260509013153 | 58 | 188 | 1.0 | 7.0 | 0.00 | 0.00 | 0.00 | 81 | 1014.6 |
| 20260509012653 | 58 | 127 | 1.0 | 2.0 | 0.00 | 0.00 | 0.00 | 83 | 1014.4 |
| 20260509012421 | 58 | 285 | 1.0 | 2.0 | 0.00 | 0.00 | 0.00 | 82 | 1014.3 |
| 20260509012300 | 58 | 285 | 1.0 | 2.0 | 0.00 | 0.00 | 0.00 | 82 | 1014.3 |
| 20260509011655 | 59 | 281 | 1.0 | 2.0 | 0.00 | 0.00 | 0.00 | 82 | 1014.3 |
| 20260509011154 | 59 | 0 | 1.0 | 2.0 | 0.00 | 0.00 | 0.00 | 81 | 1014.1 |
| 20260509010654 | 59 | 257 | 1.0 | 2.0 | 0.00 | 0.00 | 0.00 | 80 | 1014.0 |
| 20260509010155 | 60 | 263 | 1.0 | 2.0 | 0.00 | 0.00 | 0.00 | 80 | 1014.0 |
| 20260509005918 | 60 | 279 | 1.0 | 2.0 | 0.00 | 0.01 | 0.00 | 79 | 1014.0 |
| 20260509005759 | 60 | 279 | 1.0 | 2.0 | 0.00 | 0.01 | 0.00 | 79 | 1014.0 |
| 20260509005420 | 60 | 277 | 1.0 | 2.0 | 0.00 | 0.05 | 0.00 | 79 | 1013.9 |
| 20260509005300 | 60 | 277 | 1.0 | 2.0 | 0.00 | 0.05 | 0.00 | 79 | 1013.9 |
| 20260509004920 | 61 | 270 | 1.0 | 2.0 | 0.00 | 0.09 | 0.00 | 77 | 1013.8 |
| 20260509004800 | 61 | 270 | 1.0 | 2.0 | 0.00 | 0.09 | 0.00 | 77 | 1013.8 |
| 20260509004152 | 61 | 143 | 1.0 | 2.0 | 0.00 | 0.10 | 0.00 | 77 | 1013.9 |
| 20260509003648 | 61 | 262 | 1.0 | 2.0 | 0.00 | 0.13 | 0.00 | 76 | 1013.9 |
| 20260509003148 | 61 | 171 | 1.0 | 2.0 | 0.00 | 0.22 | 0.00 | 74 | 1013.7 |
| 20260509002648 | 62 | 315 | 1.0 | 2.0 | 0.00 | 0.22 | 0.00 | 71 | 1013.6 |
| 20260509002148 | 62 | 265 | 1.0 | 2.0 | 0.00 | 0.22 | 0.00 | 68 | 1013.7 |
| 20260509001646 | 62 | 261 | 1.0 | 2.0 | 0.00 | 0.22 | 0.00 | 66 | 1013.7 |
| 20260509001145 | 63 | 137 | 1.0 | 2.0 | 0.00 | 0.22 | 0.00 | 66 | 1013.7 |
| 20260509000908 | 63 | 0 | 0.0 | 1.0 | 0.00 | 0.22 | 0.00 | 67 | 1013.6 |
| 20260509000750 | 63 | 0 | 0.0 | 1.0 | 0.00 | 0.22 | 0.00 | 67 | 1013.6 |
| 20260509000146 | 63 | 0 | 0.0 | 1.0 | 0.00 | 0.22 | 0.00 | 64 | 1013.7 |
| 20260508235645 | 64 | 153 | 1.0 | 2.0 | 0.00 | 0.22 | 0.00 | 64 | 1013.6 |
| 20260508235413 | 64 | 281 | 1.0 | 2.0 | 0.00 | 0.22 | 0.00 | 63 | 1013.8 |
| 20260508235251 | 64 | 281 | 1.0 | 2.0 | 0.00 | 0.22 | 0.00 | 63 | 1013.8 |
| 20260508234646 | 65 | 0 | 0.0 | 2.0 | 0.00 | 0.22 | 0.00 | 62 | 1013.6 |
| 20260508234146 | 65 | 0 | 0.0 | 1.0 | 0.00 | 0.22 | 0.00 | 61 | 1013.6 |
| 20260508233646 | 66 | 0 | 0.0 | 1.0 | 0.00 | 0.22 | 0.00 | 61 | 1013.6 |
| 20260508233144 | 66 | 243 | 0.0 | 2.0 | 0.00 | 0.22 | 0.00 | 59 | 1013.5 |
| 20260508232643 | 66 | 24 | 1.0 | 2.0 | 0.00 | 0.22 | 0.00 | 57 | 1013.6 |
| 20260508232404 | 67 | 261 | 1.0 | 3.0 | 0.00 | 0.22 | 0.00 | 57 | 1013.5 |
| 20260508232245 | 67 | 261 | 1.0 | 3.0 | 0.00 | 0.22 | 0.00 | 57 | 1013.5 |
| 20260508231637 | 67 | 242 | 1.0 | 3.0 | 0.00 | 0.22 | 0.00 | 55 | 1013.5 |
| 20260508231138 | 67 | 230 | 1.0 | 4.0 | 0.00 | 0.22 | 0.00 | 55 | 1013.3 |
| 20260508231127 | 68 | 220 | 1.0 | 4.0 | 0.00 | 0.22 | 0.00 | 54 | 1013.4 |
| 20260508230742 | 68 | 220 | 1.0 | 4.0 | 0.00 | 0.22 | 0.00 | 54 | 1013.4 |
| 20260508230138 | 68 | 135 | 1.0 | 4.0 | 0.00 | 0.22 | 0.00 | 52 | 1013.5 |
| 20260508225638 | 68 | 255 | 1.0 | 4.0 | 0.00 | 0.22 | 0.00 | 52 | 1013.5 |
| 20260508225138 | 68 | 185 | 1.0 | 4.0 | 0.00 | 0.22 | 0.00 | 52 | 1013.5 |
| 20260508224635 | 69 | 164 | 1.0 | 3.0 | 0.00 | 0.22 | 0.00 | 52 | 1013.5 |
| 20260508224135 | 69 | 211 | 1.0 | 4.0 | 0.00 | 0.22 | 0.00 | 51 | 1013.4 |
| 20260508223634 | 69 | 174 | 1.0 | 5.0 | 0.00 | 0.22 | 0.00 | 50 | 1013.3 |
| 20260508223135 | 69 | 166 | 2.0 | 5.0 | 0.00 | 0.22 | 0.00 | 50 | 1013.3 |
| 20260508222852 | 69 | 0 | 1.0 | 4.0 | 0.00 | 0.22 | 0.00 | 49 | 1013.3 |
| 20260508222740 | 69 | 0 | 1.0 | 4.0 | 0.00 | 0.22 | 0.00 | 49 | 1013.3 |
| 20260508222405 | 69 | 185 | 1.0 | 4.0 | 0.00 | 0.22 | 0.00 | 50 | 1013.3 |
| 20260508222135 | 69 | 185 | 1.0 | 4.0 | 0.00 | 0.22 | 0.00 | 50 | 1013.3 |
| 20260508221634 | 70 | 240 | 1.0 | 3.0 | 0.00 | 0.22 | 0.00 | 49 | 1013.3 |
| 20260508221134 | 70 | 166 | 1.0 | 4.0 | 0.00 | 0.22 | 0.00 | 47 | 1013.2 |
| 20260508220634 | 70 | 193 | 1.0 | 4.0 | 0.00 | 0.22 | 0.00 | 47 | 1013.2 |
| 20260508220134 | 70 | 189 | 1.0 | 4.0 | 0.00 | 0.22 | 0.00 | 48 | 1013.1 |
| 20260508215634 | 70 | 229 | 2.0 | 4.0 | 0.00 | 0.22 | 0.00 | 46 | 1013.1 |
| 20260508215133 | 71 | 143 | 2.0 | 4.0 | 0.00 | 0.22 | 0.00 | 45 | 1013.1 |
| 20260508214859 | 71 | 147 | 2.0 | 6.0 | 0.00 | 0.22 | 0.00 | 45 | 1013.1 |
| 20260508214736 | 71 | 147 | 2.0 | 6.0 | 0.00 | 0.22 | 0.00 | 45 | 1013.1 |
| 20260508214351 | 71 | 208 | 2.0 | 6.0 | 0.00 | 0.22 | 0.00 | 43 | 1013.2 |
| 20260508214233 | 71 | 208 | 2.0 | 6.0 | 0.00 | 0.22 | 0.00 | 43 | 1013.2 |
| 20260508213846 | 72 | 145 | 1.0 | 4.0 | 0.00 | 0.22 | 0.00 | 44 | 1013.1 |
| 20260508213733 | 72 | 145 | 1.0 | 4.0 | 0.00 | 0.22 | 0.00 | 44 | 1013.1 |
| 20260508213353 | 71 | 0 | 1.0 | 5.0 | 0.00 | 0.22 | 0.00 | 47 | 1013.2 |
| 20260508213234 | 71 | 0 | 1.0 | 5.0 | 0.00 | 0.22 | 0.00 | 47 | 1013.2 |
| 20260508212628 | 71 | 53 | 1.0 | 5.0 | 0.00 | 0.22 | 0.00 | 43 | 1013.2 |
| 20260508212123 | 72 | 129 | 1.0 | 4.0 | 0.00 | 0.22 | 0.00 | 45 | 1013.2 |
| 20260508211623 | 72 | 232 | 1.0 | 4.0 | 0.00 | 0.22 | 0.00 | 43 | 1013.2 |
| 20260508211124 | 72 | 220 | 1.0 | 4.0 | 0.00 | 0.22 | 0.00 | 42 | 1013.3 |
| 20260508210853 | 72 | 0 | 1.0 | 4.0 | 0.00 | 0.22 | 0.00 | 41 | 1013.3 |
| 20260508210625 | 72 | 0 | 1.0 | 4.0 | 0.00 | 0.22 | 0.00 | 41 | 1013.3 |
| 20260508210347 | 72 | 247 | 1.0 | 3.0 | 0.00 | 0.22 | 0.00 | 40 | 1013.3 |
| 20260508210229 | 72 | 247 | 1.0 | 3.0 | 0.00 | 0.22 | 0.00 | 40 | 1013.3 |
| 20260508205626 | 72 | 219 | 2.0 | 5.0 | 0.00 | 0.22 | 0.00 | 40 | 1013.4 |
| 20260508205124 | 72 | 241 | 2.0 | 5.0 | 0.00 | 0.23 | 0.00 | 40 | 1013.5 |
| 20260508204620 | 73 | 173 | 1.0 | 5.0 | 0.00 | 0.23 | 0.00 | 42 | 1013.6 |
| 20260508204119 | 72 | 35 | 1.0 | 5.0 | 0.00 | 0.24 | 0.00 | 41 | 1013.6 |
| 20260508203621 | 72 | 0 | 1.0 | 4.0 | 0.00 | 0.24 | 0.00 | 39 | 1013.8 |
| 20260508203117 | 72 | 333 | 2.0 | 7.0 | 0.00 | 0.25 | 0.00 | 40 | 1013.7 |
| 20260508202618 | 72 | 10 | 2.0 | 7.0 | 0.00 | 0.27 | 0.00 | 40 | 1013.6 |
| 20260508202114 | 73 | 166 | 2.0 | 5.0 | 0.00 | 0.28 | 0.00 | 41 | 1013.6 |
| 20260508201616 | 73 | 196 | 1.0 | 5.0 | 0.00 | 0.29 | 0.00 | 39 | 1013.7 |
| 20260508201114 | 73 | 29 | 2.0 | 6.0 | 0.00 | 0.30 | 0.00 | 41 | 1013.6 |
| 20260508200614 | 73 | 22 | 2.0 | 6.0 | 0.00 | 0.31 | 0.00 | 37 | 1013.8 |
| 20260508200117 | 73 | 160 | 1.0 | 4.0 | 0.00 | 0.31 | 0.00 | 41 | 1013.8 |
| 20260508195846 | 72 | 0 | 1.0 | 3.0 | 0.00 | 0.32 | 0.00 | 42 | 1013.9 |
| 20260508195616 | 72 | 0 | 1.0 | 3.0 | 0.00 | 0.32 | 0.00 | 42 | 1013.9 |
| 20260508195609 | 71 | 119 | 2.0 | 6.0 | 0.00 | 0.32 | 0.00 | 42 | 1014.0 |
| 20260508195219 | 71 | 119 | 2.0 | 6.0 | 0.00 | 0.32 | 0.00 | 42 | 1014.0 |
| 20260508194615 | 71 | 0 | 3.0 | 6.0 | 0.00 | 0.32 | 0.00 | 42 | 1014.0 |
| 20260508194112 | 72 | 183 | 3.0 | 7.0 | 0.00 | 0.32 | 0.00 | 46 | 1014.0 |
| 20260508193836 | 72 | 146 | 4.0 | 9.0 | 0.00 | 0.32 | 0.00 | 43 | 1014.1 |
| 20260508193718 | 72 | 146 | 4.0 | 9.0 | 0.00 | 0.32 | 0.00 | 43 | 1014.1 |
| 20260508193115 | 72 | 118 | 2.0 | 9.0 | 0.00 | 0.32 | 0.00 | 44 | 1014.1 |
| 20260508192616 | 73 | 323 | 1.0 | 4.0 | 0.00 | 0.32 | 0.00 | 40 | 1014.1 |